Fairbanks Eiels, AK

12:13 PM AKST on December 06, 2019 (GMT -0900)
Eielson Air Force Base

Weather History for PAEI - October, 2019

Change the Weather History Date:

Thursday, October 17, 2019

  Actual Average Record
Temperature  
Mean Temperature 26 °F -  
Max Temperature 33 °F 31 °F 50 °F (2013)
Min Temperature 19 °F 18 °F -7 °F (2008)
Degree Days  
Heating Degree Days 39    
Moisture  
Dew Point 18 °F    
Average Humidity 73    
Maximum Humidity 87    
Minimum Humidity 60    
Precipitation  
Precipitation 0.00 in - - ()
Snow  
Snow 0.00 in - - ()
Snow Depth 2.00 in    
Sea Level Pressure  
Sea Level Pressure 29.20 in    
Wind  
Wind Speed 7 mph (North)    
Max Wind Speed 10 mph    
Max Gust Speed -    
Visibility 10 miles    
Events      
Averages and records for this station are not official NWS values.
T = Trace of Precipitation, MM = Missing Value Source: NWS Daily Summary

Daily Weather History Graph

Daily Weather History Graph

Search for Another Location

Airport or City:

Astronomy

Oct. 17, 2019 Rise Set
Actual Time 8:46 AM AKDT 6:19 PM AKDT
Civil Twilight 7:56 AM AKDT 7:09 PM AKDT
Nautical Twilight 6:59 AM AKDT 8:05 PM AKDT
Astronomical Twilight 6:02 AM AKDT 9:02 PM AKDT
Moon 7:31 PM AKDT (10/17) 1:50 PM AKDT (10/17)
Length of Visible Light 11h 13m
Length of Day
9h 33m
Waning Gibbous, 85% of the Moon is Illuminated
Oct 17
Waning Gibbous
Oct 21
Last Quarter
Oct 27
New
Nov 4
First Quarter
Nov 12
Full

Hourly Weather History & Observations

Time (AKDT) Temp. Windchill Dew Point Humidity Pressure Visibility Wind Dir Wind Speed Gust Speed Precip Events Conditions
12:56 AM 21.0 °F 10.6 °F 13.1 °F 71% 29.22 in 10.0 mi North 9.2 mph - N/A   Clear
1:56 AM 21.2 °F 10.9 °F 13.3 °F 72% 29.21 in 10.0 mi North 9.2 mph - N/A   Clear
2:56 AM 19.2 °F 8.4 °F 12.6 °F 75% 29.21 in 10.0 mi NNW 9.2 mph - N/A   Clear
3:56 AM 19.8 °F 10.8 °F 12.7 °F 74% 29.21 in 10.0 mi North 6.9 mph - N/A   Scattered Clouds
4:56 AM 20.3 °F 10.6 °F 13.6 °F 75% 29.21 in 10.0 mi NNW 8.1 mph - N/A   Overcast
5:56 AM 20.5 °F 14.0 °F 13.5 °F 74% 29.20 in 10.0 mi North 4.6 mph - N/A   Scattered Clouds
6:56 AM 19.6 °F 10.6 °F 13.5 °F 77% 29.21 in 10.0 mi NNW 6.9 mph - N/A   Overcast
7:56 AM 23.2 °F 15.0 °F 15.4 °F 72% 29.20 in 10.0 mi North 6.9 mph - N/A   Overcast
8:56 AM 24.8 °F 16.1 °F 16.0 °F 69% 29.19 in 10.0 mi NNE 8.1 mph - N/A   Overcast
9:56 AM 25.0 °F 16.3 °F 17.2 °F 72% 29.19 in 10.0 mi North 8.1 mph - N/A   Overcast
11:56 AM 28.0 °F 20.0 °F 18.5 °F 67% 29.19 in 10.0 mi North 8.1 mph - N/A   Overcast
12:56 PM 30.2 °F 21.3 °F 18.7 °F 62% 29.19 in 10.0 mi NNE 10.4 mph - N/A   Clear
1:56 PM 32.0 °F 23.6 °F 20.1 °F 62% 29.20 in 10.0 mi NNE 10.4 mph - N/A   Clear
2:56 PM 33.3 °F 26.4 °F 20.8 °F 60% 29.20 in 10.0 mi NNE 8.1 mph - N/A   Clear
3:56 PM 32.5 °F 24.8 °F 20.7 °F 62% 29.20 in 10.0 mi NNE 9.2 mph - N/A   Clear
4:56 PM 31.6 °F 26.0 °F 20.5 °F 63% 29.20 in 10.0 mi North 5.8 mph - N/A   Clear
5:56 PM 30.9 °F 26.2 °F 20.5 °F 65% 29.20 in 10.0 mi North 4.6 mph - N/A   Scattered Clouds
6:56 PM 28.4 °F - 21.2 °F 74% 29.20 in 10.0 mi Calm Calm - N/A   Mostly Cloudy
7:56 PM 28.0 °F - 23.5 °F 83% 29.20 in 10.0 mi Calm Calm - N/A   Overcast
9:33 PM 28.4 °F - 24.8 °F 86% 29.18 in 10.0 mi Calm Calm - N/A   Overcast
9:56 PM 28.2 °F - 24.8 °F 87% 29.21 in 10.0 mi Calm Calm - N/A   Overcast
10:56 PM 28.6 °F - 24.1 °F 83% 29.21 in 10.0 mi Calm Calm - N/A   Overcast
11:56 PM 28.0 °F - 23.9 °F 84% 29.22 in 10.0 mi Calm Calm - N/A   Overcast